Location: Newark
(43.0000°N, 1.6781°W)
Time: 08:41:03
(UTC+00:00)

Vanguard 1 Rocket - All Passes

Search period start: 07 October 2022 00:00
Search period end: 17 October 2022 00:00
Orbit: 650 x 4225 km, 34.3° (Epoch: 06 October)

Date Brightness Start Highest point End Pass type
(mag) Time Alt. Az. Time Alt. Az. Time Alt. Az.
07 Oct - 01:00:08 10° W 01:06:22 18° SW 01:10:50 10° S night (unlit)
07 Oct - 14:01:28 10° SE 14:03:20 10° SE 14:05:11 10° SE daylight
07 Oct - 16:10:52 10° SSW 16:32:02 34° SE 16:48:02 10° E daylight
07 Oct - 18:38:35 10° SW 19:01:45 55° SSE 19:15:16 10° E visible
07 Oct - 21:11:20 10° W 21:30:13 59° S 21:39:53 10° ESE visible
07 Oct - 23:44:37 10° W 23:55:47 32° SW 00:02:18 10° SSE visible
08 Oct - 15:00:12 10° S 15:18:18 25° SE 15:33:50 10° E daylight
08 Oct - 17:24:14 10° SW 17:47:55 49° SSE 18:03:33 10° E visible
08 Oct - 19:55:30 10° WSW 20:17:25 62° S 20:29:09 10° ESE visible
08 Oct - 22:29:07 10° W 22:44:33 47° SSW 22:52:43 10° SE visible
09 Oct - 01:03:32 10° WSW 01:08:18 14° SW 01:12:02 10° SSW night (unlit)
09 Oct - 13:52:57 10° SSE 14:04:55 15° SE 14:16:18 10° ESE daylight
09 Oct - 16:11:10 10° SSW 16:33:51 40° SSE 16:51:04 10° E daylight
09 Oct - 18:40:00 10° WSW 19:03:56 60° S 19:17:59 10° E visible
09 Oct - 21:13:16 10° W 21:32:32 58° SSW 21:42:31 10° ESE visible
09 Oct - 23:47:03 10° W 23:57:49 28° SW 00:04:24 10° SSE visible
10 Oct - 14:59:42 10° SSW 15:19:55 31° SE 15:37:23 10° E daylight
10 Oct - 17:25:21 10° SW 17:49:55 54° SSE 18:06:17 10° E visible
10 Oct - 19:57:16 10° WSW 20:19:43 63° S 20:31:49 10° ESE visible
10 Oct - 22:31:13 10° W 22:46:43 43° SSW 22:55:06 10° SE visible
11 Oct - 01:08:33 10° WSW 01:10:06 10° SW 01:11:32 10° SW night (unlit)
11 Oct - 13:50:34 10° S 14:06:23 21° SE 14:21:33 10° E daylight
11 Oct - 16:11:53 10° SW 16:35:39 46° SSE 16:53:53 10° E daylight
11 Oct - 18:41:36 10° WSW 19:06:07 63° S 19:20:38 10° E visible
11 Oct - 21:15:13 10° W 21:34:47 55° SSW 21:45:03 10° SE visible
11 Oct - 23:49:40 10° W 23:59:43 23° SW 00:06:12 10° S visible
12 Oct - 12:48:03 10° SE 12:53:26 11° SE 12:58:50 10° ESE daylight
12 Oct - 14:59:52 10° SSW 15:21:29 37° SE 15:40:29 10° E daylight
12 Oct - 17:26:43 10° SW 17:51:56 59° SSE 18:08:55 10° E visible
12 Oct - 19:59:08 10° W 20:21:57 63° S 20:34:25 10° ESE visible
12 Oct - 22:33:23 10° W 22:48:44 38° SW 22:57:21 10° SSE visible
13 Oct - 13:49:42 10° S 14:07:46 26° SE 14:25:30 10° E daylight
13 Oct - 16:12:58 10° SW 16:37:26 52° SSE 16:56:34 10° E daylight
13 Oct - 18:43:21 10° WSW 19:08:17 65° S 19:23:15 10° ESE visible
13 Oct - 21:17:12 10° W 21:36:55 52° SSW 21:47:30 10° SE visible
13 Oct - 23:52:36 10° W 00:01:29 19° SW 00:07:37 10° S visible
14 Oct - 12:42:43 10° SSE 12:54:42 16° SE 13:07:10 10° E daylight
14 Oct - 15:00:33 10° SSW 15:23:01 43° SE 15:43:19 10° E daylight
14 Oct - 17:28:18 10° WSW 17:53:56 63° S 18:11:31 10° E visible
14 Oct - 20:01:03 10° W 20:24:08 61° SSW 20:36:58 10° ESE visible
14 Oct - 22:35:39 10° W 22:50:37 33° SW 22:59:23 10° SSE visible
15 Oct - 13:49:42 10° S 14:09:06 32° SE 14:28:47 10° E daylight
15 Oct - 16:14:19 10° SW 16:39:13 57° SSE 16:59:08 10° E daylight
15 Oct - 18:45:12 10° WSW 19:10:25 66° S 19:25:49 10° ESE visible
15 Oct - 21:19:13 10° W 21:38:55 47° SSW 21:49:49 10° SE visible
15 Oct - 23:56:08 10° W 00:03:06 15° SW 00:08:23 10° SSW visible
16 Oct - 12:41:03 10° S 12:55:55 21° SE 13:12:00 10° E daylight
16 Oct - 15:01:36 10° SW 15:24:35 48° SSE 15:45:57 10° E daylight
16 Oct - 17:30:03 10° WSW 17:55:57 66° S 18:14:04 10° E visible
16 Oct - 20:02:59 10° W 20:26:12 59° SSW 20:39:25 10° SE visible
16 Oct - 22:38:04 10° W 22:52:20 28° SW 23:01:10 10° S visible
